Regional Weather Roundup
Issued by NWS Bismarck, ND

Home | Current Version | Previous Version | Text Only | Print | Product List | Glossary On
Versions: 1 2 3 4 5 6 7 8 9 10 11 12 13 14 15 16 17 18 19 20 21 22 23 24 25 26 27 28 29 30 31 32 33 34 35 36 37 38 39 40 41 42 43 44 45 46 47 48 49 50
937
ASUS43 KBIS 241302
RWRBIS

NWR BROADCAST TEXT
NATIONAL WEATHER SERVICE BISMARCK ND
800 AM CDT MON JUL 24 2017

NOTE: "FAIR" INDICATES FEW OR NO CLOUDS BELOW 12,000 FEET WITH NO
SIGNIFICANT WEATHER AND/OR OBSTRUCTIONS TO VISIBILITY.


CITY           SKY/WX    TMP DP  RH WIND       PRES   REMARKS
WILLISTON      SUNNY     74  55  51 S9        29.76S
MINOT          SUNNY     73  57  57 S15       29.82S
MINOT AFB      SUNNY     71  58  64 S13       29.80S
BISMARCK       CLOUDY    66  61  84 E7        29.90F
DICKINSON      CLOUDY    68  56  65 SE13      29.83F
GARRISON         N/A     69  60  73 S16       29.85F
HETTINGER ARPT CLOUDY    71  55  56 SE7       29.89R
JAMESTOWN      MOSUNNY   63  60  90 S9        29.95F
HAZEN          FAIR      70  59  68 S17G23    29.85F
LINTON         FAIR     N/A N/A N/A SE9       29.95F
MANDAN         FAIR      64  61  88 S9        29.90F
STANLEY        FAIR      68  59  73 S14       29.84S
TIOGA          FAIR      70  55  60 S20G28    29.80F
WATFORD CITY   FAIR      72  54  53 S10       29.78S
$$

CITY           SKY/WX    TMP DP  RH WIND       PRES   REMARKS
GRAND FORKS    MOSUNNY   65  62  90 S9        29.97S
GRAND FORKS AF SUNNY     65  61  88 S9        29.97S
DEVILS LAKE    SUNNY     67  60  78 S10       29.94F
FARGO          NOT AVBL
CAVALIER       FAIR      64  61  88 S7        29.94S
GRAFTON        FAIR      63  63 100 S8        29.98S
GWINNER        SUNNY     61  61 100 CALM      30.00S
LANGDON        FAIR      64  64 100 S13       29.94F
ROLLA            N/A     63  63 100 S10       29.91S
$$

CITY           SKY/WX    TMP DP  RH WIND       PRES   REMARKS
ABERDEEN       CLOUDY    63  60  90 S10       29.99S
MOBRIDGE       CLOUDY    69  61  75 S14       29.91F
BUFFALO          N/A     71  55  56 S10G22    29.82R
RAPID CITY     SUNNY     68  54  60 W5        29.90S
GLASGOW        CLOUDY    71  41  33 NW13      29.75R
SIDNEY         SUNNY     68  56  65 S8        29.76F
WOLF POINT     PTSUNNY   76  49  38 SW5       29.72R
GLENDIVE       SUNNY     74  51  44 S7        29.79S
MILES CITY     SUNNY     73  45  36 S9        29.79S
BAKER          SUNNY     71  48  43 SE6       29.85R
$$

CITY           SKY/WX    TMP DP  RH WIND       PRES   REMARKS
BILLINGS       MOSUNNY   67  41  38 SW13      29.88R
GREAT FALLS    PTCLDY    52  41  66 NW10      30.07R
$$





USA.gov is the U.S. government's official web portal to all federal, state and local government web resources and services.